COSMOS 2491 DEB, 45130

Orbit data source: Space-Track

COSMOS 2491 DEB, 45130 is space debris in LEO originally from a launch on Wed, 25 Dec 2013 UTC launched from the Plesetsk Missile And Space Complex (PKMTR). Debris objects in space refer to the collection of defunct objects orbiting the Earth. Examples of debris include non-operational satellites, rocket bodies, and fragments generated from explosions, collisions, or faulty payload assembly.

Loading next visibility...
Identifier
45130, 2013-076AC
Orbit
LEO
Country
Flag of CISCIS
Related business
Manufacturer
TsNIIKhM
Mission
Spacecraft
Bus & Motor
Unknown
Mass
Unknown
Launch date (UTC)
2013-12-25 (13 years ago)
Launch vehicle
Unknown
Launch site
Plesetsk Missile And Space Complex (PKMTR)
Object type
Payload
Rocket body
Debris
Shape & HBR
Unknown shape, 0.1 m
Radar Cross Section
Small (<0.1 m²)

Expand to show TLE details & history
Last TLE update: 4 weeks ago

TLE from 4 weeks ago
0 COSMOS 2491 DEB
1 45130U 13076AC  26183.01384523  .00003860  00000-0  17820-1 0  9992
2 45130  82.4393  92.5285 0168285  67.7223 294.1621 12.72015161296572
Epoch: 2026-07-02T00:19Z
TLE epoch observation values (Epoch: 2026-07-02T00:19:56.227Z)
Latitude
-0.00009°
Longitude
167.48188°
Altitude
1,324.923 km
Speed
7.219 km/s
True Right ascension
06h 10m 06s
True Declination
0° 00' 00"
Sunlit
Object was in daylight at epoch
Visualization orbit readout
Latitude
Unknown
Longitude
Unknown
Altitude
Unknown
Speed
Unknown
Apparent Right ascension
Unknown
Apparent Declination
Unknown
Sunlit
N/A
Visualization observer readout
Local Sidereal Time
07:42:48
Azimuth
Unknown
Elevation
Unknown
Doppler factor
Unknown
Orbital elements
Apogee altitude
1,501.46 km
Perigee altitude
1,240.646 km
Semi-major axis
7,749.19 km
Eccentricity
0.01683
Inclination
82.4393°
RAAN
92.5285°
Arg. of periapsis
67.7223°
True anomaly
292.38765°
Mean anomaly
294.1621°
Eccentric anomaly
293.27637°
Mean motion
3.1817 °/min
Orbital period
113.15 mins
BSTAR
0.01782
Loading maneuver chart data...
Computing Atmospheric mass density...
Loading historical data...
Loading historical data...
Loading historical data...
Loading historical data...
Loading historical data...
Loading historical data...
Loading historical data...

Documentation

Showing up to 5 results
|